[[{"header":{"parameterUnit":"m.s-1","parameterCategory":1,"la1":30.2991,"la2":30.254,"lo1":-89.0895,"lo2":-89.0444,"dy":0.0017,"dx":0.0017,"nx":28,"ny":28,"refTime":"2025-07-06T09:00:00:Z","depth":0,"parameterNumber":2,"parameterNumberName":"U-component_of_WINDS"},"data":[0,0,0,0,0,0,0,0,0,0,0,0,0,0,0,0,0,0,0,0,0,0,0,0,0,0,0,0,0,0,0,0,0,0,0,0,0,0,0,0,0,0,0,0,0,0,0,0,0,0,0,0,0,0,0,0,0,0,3.4007,3.4009,0,3.4213,3.4215,3.4217,3.4223,3.4221,3.4218,3.4216,3.4426,3.4434,3.4442,0,0,0,0,0,0,0,0,0,0,0,0,0,3.3617,3.3624,3.4007,3.4009,3.4012,3.4212,3.4215,3.4218,3.4224,3.422,3.4217,3.4215,3.4423,3.4433,3.4442,0,0,0,0,0,0,0,0,0,0,0,0,0,3.3801,3.3627,3.4006,3.4039,3.4044,3.4212,3.4215,3.4219,3.4224,3.422,3.4217,3.4213,3.442,3.4432,3.4444,3.4593,0,0,3.448,3.4485,0,0,0,0,0,0,0,0,3.3791,3.3815,3.4032,3.4037,3.4043,3.4188,3.4155,3.4344,3.4225,3.4156,3.4216,3.4211,3.435,3.4367,3.4414,3.4603,3.4612,3.4481,3.4488,3.4494,3.4497,0,0,0,0,0,0,0,3.3778,3.3807,3.4088,3.4035,3.4042,3.4043,3.4065,3.4191,3.4272,3.4161,3.4162,3.4187,3.4352,3.4403,3.4419,3.4615,3.4481,3.4491,3.4499,3.4503,3.4934,3.4938,0,0,0,0,0,0,3.3759,3.3796,3.4082,3.4094,3.3905,3.4053,3.4077,3.4145,3.427,3.4286,3.419,3.4186,3.4384,3.4405,3.4427,3.4608,3.4493,3.4505,3.4511,3.4929,3.4934,3.4939,0,0,0,0,0,0,3.3751,3.3784,3.4073,3.3946,3.3982,3.4064,3.414,3.4152,3.4202,3.4292,3.4306,3.4227,3.4382,3.441,3.4551,3.4615,3.451,3.4521,3.4924,3.4931,3.4937,3.4972,0,0,0,0,0,0,3.3739,3.3781,3.3839,3.3947,3.3989,3.4195,3.4144,3.4158,3.4223,3.422,3.433,3.4344,3.4381,3.4533,3.4563,3.463,3.453,3.4919,3.4927,3.4935,3.4965,3.4979,3.499,0,0,0,0,0,3.3725,3.3841,3.3842,3.3877,3.4063,3.4199,3.4223,3.4263,3.4228,3.4286,3.4343,3.4341,3.4604,3.4548,3.4581,3.4652,3.4915,3.4925,3.4934,3.496,3.4976,3.499,0,0,0,0,0,0,3.374,3.3856,3.3858,3.4013,3.4096,3.4199,3.4274,3.4279,3.4374,3.4367,3.4413,3.4438,3.4578,3.463,3.4565,3.4802,3.4755,3.4772,3.4763,3.4779,3.4791,3.4775,3.454,0,0,0,0,0,3.3761,3.3861,3.3957,3.4084,3.4126,3.4193,3.4253,3.4277,3.4365,3.44,3.4467,3.4552,3.4654,3.472,3.4818,3.4973,3.4996,3.5039,3.5051,3.5061,3.5074,3.5158,3.5177,3.4971,3.4971,3.497,0,0,3.3805,3.3881,3.3942,3.4089,3.4156,3.4258,3.4222,3.4332,3.4408,3.4416,3.4553,3.4606,3.4703,3.4851,3.492,3.4899,3.5137,3.5073,3.508,3.5089,3.517,3.5189,3.5206,3.4977,3.4976,3.4975,0,0,3.3938,3.4007,3.4119,3.4186,3.4288,3.4332,3.4358,3.4462,3.4497,3.4635,3.4642,3.4733,3.4908,3.4976,3.5034,3.5191,3.5192,3.5222,3.5286,3.5367,3.5384,3.5398,3.5452,3.5471,3.5236,3.5236,3.5236,0,3.3981,3.4135,3.4176,3.4285,3.4349,3.4361,3.4474,3.4538,3.4667,3.471,3.4684,3.4902,3.4969,3.5132,3.517,3.5218,3.5248,3.5209,3.5378,3.5393,3.5407,3.5459,3.548,3.5239,3.5238,3.5238,3.5238,0,3.4181,3.4288,3.4366,3.4489,3.4562,3.4673,3.4729,3.4798,3.4815,3.4861,3.5,3.5081,3.5195,3.5236,3.5254,3.5402,3.5385,3.5368,3.5322,3.5429,3.5479,3.5499,3.5243,3.5242,3.5241,3.524,0,0,3.4329,3.4472,3.45,3.4555,3.4667,3.4751,3.4861,3.4973,3.5029,3.5118,3.5211,3.5357,3.5342,3.5408,3.5434,3.5505,3.5622,3.548,3.5483,3.5501,3.5786,3.5796,3.5819,3.5623,3.5627,3.5631,3.5777,0,3.4472,3.4669,3.4708,3.4879,3.4977,3.4989,3.5086,3.5164,3.521,3.5299,3.535,3.5452,3.5426,3.5465,3.5536,3.5592,3.5679,3.5583,3.5709,3.5713,3.5682,3.5845,3.5857,3.5991,3.5797,3.58,3.5803,0,3.4666,3.4758,3.4938,3.5035,3.5078,3.5164,3.5268,3.5354,3.5443,3.5471,3.5543,3.5561,3.5676,3.5624,3.5782,3.5715,3.5769,3.5804,3.581,3.5822,3.5763,3.5859,3.6036,3.6055,3.5834,3.5832,3.5829,0,3.4753,3.4922,3.5051,3.5098,3.5216,3.5275,3.5327,3.5413,3.5476,3.5567,3.5609,3.5712,3.5768,3.5847,3.5892,3.5851,3.6045,3.5998,3.607,3.6069,3.6109,3.6106,3.6295,3.6148,3.6147,3.6147,3.6146,0,3.4908,3.5017,3.5091,3.517,3.5292,3.5336,3.5456,3.5507,3.5583,3.5671,3.5689,3.5771,3.5826,3.5916,3.5952,3.6076,3.6102,3.6127,3.6134,3.6124,3.612,3.6159,3.615,3.6152,3.6151,3.615,3.6149,0,3.5026,3.508,3.5221,3.532,3.5347,3.5433,3.5517,3.5594,3.564,3.5751,3.578,3.5852,3.5958,3.6011,3.6144,3.6168,3.6307,3.631,3.6277,3.6279,3.6348,3.634,3.6566,3.6597,3.6431,3.6432,3.6434,0,3.512,3.5204,3.5312,3.5372,3.5425,3.5523,3.5587,3.5634,3.57,3.5807,3.587,3.5978,3.6066,3.6236,3.6299,3.6401,3.6405,3.6477,3.642,3.6407,3.6404,3.6397,3.6405,3.6487,3.6489,3.649,3.6491,0,3.5282,3.5304,3.5397,3.5498,3.5575,3.5657,3.5738,3.5786,3.5845,3.5919,3.6028,3.6097,3.6232,3.6337,3.6443,3.6496,3.6503,3.6509,3.653,3.6519,3.6496,3.6507,3.6302,3.6503,3.6502,3.6501,3.65,3.65,3.539,3.5464,3.5551,3.5653,3.5718,3.5793,3.5869,3.5924,3.6016,3.6129,3.6151,3.6266,3.6351,3.6493,3.6549,3.6639,3.6623,3.6655,3.6663,3.667,3.6672,3.6483,3.6659,3.6659,3.6659,3.6659,3.6658,0,3.5551,3.5607,3.57,3.5812,3.5892,3.5892,3.5981,3.6047,3.6148,3.6227,3.6313,3.6437,3.654,3.6611,3.6714,3.6773,3.6778,3.6798,3.6793,3.6805,3.6682,3.6652,3.6792,3.6792,3.6792,3.6792,3.6792,3.6791,3.5643,3.5768,3.58,3.5957,3.6013,3.6125,3.6176,3.6244,3.6307,3.6445,3.653,3.6575,3.6651,3.676,3.6853,3.6871,3.6908,3.6927,3.6945,3.6828,3.6814,3.68,3.6772,3.6935,3.6936,3.706,3.7062,3.7062]},{"header":{"parameterUnit":"m.s-1","parameterCategory":1,"la1":30.2991,"la2":30.254,"lo1":-89.0895,"lo2":-89.0444,"dy":0.0017,"dx":0.0017,"nx":28,"ny":28,"refTime":"2025-07-06T09:00:00:Z","depth":0,"parameterNumber":3,"parameterNumberName":"V-component_of_WINDS"},"data":[0,0,0,0,0,0,0,0,0,0,0,0,0,0,0,0,0,0,0,0,0,0,0,0,0,0,0,0,0,0,0,0,0,0,0,0,0,0,0,0,0,0,0,0,0,0,0,0,0,0,0,0,0,0,0,0,0,0,0.9685,0.9686,0,0.9756,0.9757,0.9758,0.9736,0.9735,0.9733,0.9732,0.981,0.9814,0.9817,0,0,0,0,0,0,0,0,0,0,0,0,0,0.9536,0.9539,0.9685,0.9686,0.9687,0.9756,0.9757,0.9758,0.9736,0.9734,0.9733,0.9731,0.9809,0.9813,0.9817,0,0,0,0,0,0,0,0,0,0,0,0,0,0.9604,0.954,0.9685,0.9684,0.9685,0.9756,0.9757,0.9758,0.9737,0.9734,0.9732,0.973,0.9808,0.9813,0.9818,0.9895,0,0,0.9834,0.9836,0,0,0,0,0,0,0,0,0.96,0.9609,0.9684,0.9684,0.9685,0.9735,0.9733,0.9804,0.9737,0.9717,0.9732,0.9729,0.9787,0.9794,0.9813,0.9899,0.9903,0.9835,0.9838,0.984,0.9841,0,0,0,0,0,0,0,0.9595,0.9606,0.9713,0.9685,0.9686,0.9682,0.9689,0.9747,0.9764,0.9719,0.9717,0.9726,0.9787,0.9808,0.9814,0.9904,0.9834,0.9839,0.9842,0.9844,1.0057,1.006,0,0,0,0,0,0,0.9589,0.9602,0.9711,0.9715,0.9636,0.9687,0.9695,0.9721,0.9764,0.9768,0.9728,0.9724,0.98,0.9808,0.9817,0.9911,0.984,0.9845,0.9848,1.0055,1.0058,1.0061,0,0,0,0,0,0,0.9586,0.9599,0.9708,0.9658,0.9672,0.9692,0.9722,0.9724,0.9744,0.977,0.9774,0.9745,0.9798,0.981,0.9876,0.9913,0.9847,0.9852,1.0052,1.0056,1.0059,1.0098,0,0,0,0,0,0,0.9582,0.9598,0.9627,0.9659,0.9675,0.9764,0.9724,0.9727,0.9752,0.9749,0.9787,0.9791,0.9797,0.9868,0.9881,0.9919,0.9856,1.0049,1.0054,1.0058,1.0094,1.0103,1.0111,0,0,0,0,0,0.9577,0.9636,0.9628,0.9642,0.9711,0.9767,0.9776,0.978,0.9755,0.9785,0.9802,0.979,0.9906,0.9875,0.9889,0.993,1.0046,1.0052,1.0058,1.009,1.0101,1.011,0,0,0,0,0,0,0.961,0.9641,0.9632,0.9703,0.9732,0.9763,0.98,0.9791,0.983,0.9825,0.983,0.9839,0.9907,0.9925,0.9889,1.0007,0.9973,0.9982,0.9993,1.0003,1.0012,1.0007,0.986,0,0,0,0,0,0.9625,0.9666,0.9692,0.9752,0.9767,0.9781,0.9806,0.9806,0.9837,0.985,0.9871,0.9903,0.9947,0.9976,1.0018,1.0096,1.0104,1.013,1.0139,1.0146,1.0154,1.0197,1.0209,1.0079,1.0079,1.0079,0,0,0.9658,0.968,0.9706,0.976,0.9782,0.9826,0.9792,0.984,0.9873,0.9858,0.9921,0.9938,0.9974,1.0046,1.0079,1.0063,1.0191,1.0153,1.0158,1.0163,1.0204,1.0216,1.0227,1.0083,1.0082,1.0082,0,0,0.9741,0.9761,0.9813,0.9836,0.9869,0.9878,0.989,0.9922,0.9932,0.9995,0.9984,1.0024,1.01,1.0126,1.0149,1.0239,1.0231,1.0253,1.0298,1.034,1.035,1.0359,1.0392,1.0404,1.0261,1.0261,1.0261,0,0.9778,0.9842,0.9842,0.9891,0.9915,0.99,0.9955,0.9977,1.0023,1.0041,1.0022,1.0115,1.0139,1.0217,1.0238,1.0257,1.0273,1.0249,1.0348,1.0357,1.0366,1.0397,1.041,1.0263,1.0263,1.0263,1.0262,0,0.9887,0.9931,0.997,1.0013,1.0041,1.0093,1.0102,1.0131,1.0128,1.0139,1.0204,1.0231,1.0278,1.0296,1.0295,1.0374,1.0363,1.0346,1.0313,1.038,1.041,1.0422,1.0267,1.0266,1.0265,1.0265,0,0,0.9994,1.0034,1.0049,1.0068,1.0103,1.0138,1.0189,1.0232,1.0257,1.029,1.0333,1.0396,1.038,1.0406,1.0408,1.0444,1.0515,1.0422,1.0423,1.0439,1.0605,1.0618,1.0632,1.0508,1.051,1.0512,1.0602,0,1.008,1.0168,1.0168,1.025,1.0291,1.0277,1.0321,1.0349,1.036,1.0398,1.0412,1.0457,1.0431,1.0447,1.0482,1.0499,1.0548,1.0492,1.0551,1.0553,1.0543,1.0648,1.0662,1.0746,1.0613,1.0615,1.0617,0,1.0193,1.0226,1.031,1.0338,1.0356,1.0396,1.0435,1.0472,1.0502,1.0508,1.0536,1.0532,1.0586,1.0549,1.0623,1.0585,1.0609,1.0621,1.0624,1.0631,1.059,1.0659,1.0772,1.0785,1.0635,1.0634,1.0632,0,1.0264,1.033,1.0388,1.0405,1.0439,1.0467,1.0483,1.0511,1.0537,1.0572,1.0589,1.0631,1.0654,1.0687,1.0695,1.0667,1.077,1.0734,1.0777,1.0777,1.0801,1.08,1.0921,1.0814,1.0814,1.0814,1.0814,0,1.036,1.0413,1.0421,1.0457,1.0516,1.0516,1.0575,1.0589,1.0614,1.0654,1.0645,1.0683,1.069,1.073,1.0737,1.0798,1.0808,1.0815,1.0817,1.0817,1.0816,1.0834,1.0829,1.0817,1.0817,1.0816,1.0815,0,1.045,1.0457,1.0521,1.0547,1.0555,1.0597,1.062,1.0656,1.0665,1.0716,1.0728,1.0744,1.0791,1.0801,1.0857,1.0861,1.0934,1.0929,1.0923,1.0923,1.0966,1.0963,1.1105,1.1124,1.1003,1.1004,1.1005,0,1.0512,1.0552,1.0581,1.0606,1.0623,1.0664,1.0689,1.0692,1.0719,1.0756,1.0788,1.0833,1.0869,1.0944,1.0962,1.1005,1.1002,1.1048,1.1009,1.1007,1.1004,1.1002,1.1006,1.1057,1.1058,1.1059,1.106,0,1.0622,1.0622,1.0659,1.0696,1.0726,1.0756,1.0785,1.0807,1.0813,1.0844,1.0891,1.0919,1.0974,1.102,1.1062,1.108,1.1072,1.1072,1.1085,1.1086,1.1081,1.1085,1.0945,1.1069,1.1068,1.1068,1.1067,1.1067,1.07,1.0735,1.076,1.0801,1.0822,1.0849,1.0883,1.0896,1.0934,1.0978,1.0977,1.1028,1.1058,1.1114,1.1134,1.1175,1.1161,1.1179,1.1184,1.1189,1.1193,1.1073,1.1183,1.1183,1.1182,1.1182,1.1182,0,1.081,1.0825,1.0862,1.0901,1.0934,1.092,1.095,1.0979,1.1023,1.105,1.1085,1.1139,1.1182,1.1202,1.1246,1.1275,1.1272,1.1286,1.1285,1.1289,1.1203,1.1188,1.1287,1.1287,1.1287,1.1287,1.1287,1.1287,1.0871,1.0928,1.0932,1.1001,1.1016,1.1064,1.1083,1.1108,1.1129,1.1188,1.1224,1.1235,1.126,1.1305,1.1345,1.135,1.1367,1.1383,1.1386,1.1306,1.1295,1.1285,1.1271,1.1386,1.1387,1.1469,1.147,1.1471]}]]